Weather in Narmushad

Russia / Ryazan Oblast     54°40′07″N   41°06′47″E
temp.,
°C
wind,
m/s
gust,
m/s
humid.,
%
clouds,
%
prec.,
mm/h
press.,
hPa
HPBL,
m
27 february, sat
sat2700:00+1w5149286 0.0 1000680
03:00+1w6139293 0.1 1000766
06:00+1w7139297 0.0 999918
09:00−6nw7128899 0.9 1001919
12:00−9nnw71187100 0.1 1004760
15:00−8nnw61087100 0.1 1007761
18:00−10nnw4991100 0.1 1009494
21:00−12nnw379499 0.1 1012180
28 february, sun
sun2800:00−14nnw369644 0.0 1013124
03:00−15nnw349630 0.0 101578
06:00−16nnw23960 0.0 101547
09:00−13nnw249335 0.0 1016243
12:00−9nnw248793 0.0 1016496
15:00−7nnw248896 0.1 1016600
18:00−8nnw2294100 0.1 101745
21:00−11nne2296100 0.1 101921
1 march, mon
mon100:00−13ne119687 0.0 102121
03:00−15n019645 0.0 102220
06:00−15nw11962 0.0 102320
09:00−11sw119446 0.0 102432
12:00−6ssw229070 0.0 1023322
15:00−4sw459285 0.1 1022476
18:00−4sw4894100 0.1 1020367
21:00−3sw4995100 0.1 1017325
2 march, tue
tue200:00−1wsw51197100 1.4 1014532
03:00+1w41098100 1.8 1012455
06:00+1w51098100 0.4 1010491
09:00+1wnw51099100 0.6 1009569
12:00+1nw5999100 0.3 1008596
15:00+1nw51010099 0.5 1008635
18:00−1nw4118970 0.1 1008355
21:00−2nw4119363 0.1 1009408
3 march, wed
wed300:00−2nw4119398 0.1 1010540
03:00−2nw5109297 0.1 1011660
06:00−3nw5991100 0.1 1012620
09:00−3nw51091100 0.1 1014826
12:00−1nnw5987100 0.1 10151009
15:000nnw5986100 0.3 10161034
18:00−2nnw4109199 0.1 1017610
21:00−5nw499593 0.1 1019221